Back to catalog

STARLINK-31656

AliveCommunicationsVLEO
NORAD 60286·PAYLOAD·🇺🇸 United States

Launched Jul 28, 2024 from Cape Canaveral Space Force Station

Loading…

Next Passes (next 24 hours)

TLE

FreshSource: CelesTrak SupGP

Epoch: Sep 14, 2026, 14:58 UTC

1 60286C 24132J   26257.62409722 -.00027473  00000+0 -81190-3 0  2571
2 60286  53.1576 253.3919 0001328  81.8499  66.6900 15.34396760    18

Track STARLINK-31656 in real time with AllMySat

Download on the App Store